Time,TemperatureF,DewpointF,PressureIn,WindDirection,WindDirectionDegrees,WindSpeedMPH,WindSpeedGustMPH,Humidity,HourlyPrecipIn,Conditions,Clouds,dailyrainin,SoftwareType,DateUTC
2013-04-09 00:01:00,67.6,61.2,29.71,SE,133,7.0,20.0,80,0.00,,,0.00,meteohub,2013-04-09 05:01:00,
2013-04-09 00:06:00,67.6,61.2,29.71,SE,131,11.0,20.0,80,0.00,,,0.00,meteohub,2013-04-09 05:06:00,
2013-04-09 00:11:00,67.6,61.2,29.71,SE,146,11.0,20.0,80,0.00,,,0.00,meteohub,2013-04-09 05:11:00,
2013-04-09 00:16:00,67.6,61.2,29.71,SSE,163,8.0,19.0,80,0.00,,,0.00,meteohub,2013-04-09 05:16:00,
2013-04-09 00:21:00,67.6,61.2,29.71,SSE,149,10.0,19.0,80,0.00,,,0.00,meteohub,2013-04-09 05:21:00,
2013-04-09 00:26:00,67.6,61.2,29.71,SE,136,8.0,19.0,80,0.00,,,0.00,meteohub,2013-04-09 05:26:00,
2013-04-09 00:31:00,67.8,61.3,29.71,SE,136,13.0,20.0,80,0.00,,,0.00,meteohub,2013-04-09 05:31:00,
2013-04-09 00:36:00,67.8,61.3,29.71,ESE,122,18.0,21.0,80,0.00,,,0.00,meteohub,2013-04-09 05:36:00,
2013-04-09 00:41:00,67.8,61.3,29.71,South,174,10.0,21.0,80,0.00,,,0.00,meteohub,2013-04-09 05:41:00,
2013-04-09 00:46:00,67.8,61.3,29.71,SSE,149,16.0,23.0,80,0.00,,,0.00,meteohub,2013-04-09 05:46:00,
2013-04-09 00:51:00,68.0,61.5,29.71,South,171,10.0,23.0,80,0.00,,,0.00,meteohub,2013-04-09 05:51:00,
2013-04-09 00:56:00,68.0,61.5,29.71,SSE,152,10.0,25.0,80,0.00,,,0.00,meteohub,2013-04-09 05:56:00,
2013-04-09 01:02:00,68.2,61.7,29.71,SE,143,7.0,25.0,80,0.00,,,0.00,meteohub,2013-04-09 06:02:00,
2013-04-09 01:07:00,68.2,61.7,29.70,SE,124,9.0,25.0,80,0.00,,,0.00,meteohub,2013-04-09 06:07:00,
2013-04-09 01:12:00,68.0,61.5,29.70,SSE,149,10.0,25.0,80,0.00,,,0.00,meteohub,2013-04-09 06:12:00,
2013-04-09 01:17:00,67.8,61.3,29.70,SSE,149,9.0,23.0,80,0.00,,,0.00,meteohub,2013-04-09 06:17:00,
2013-04-09 01:22:00,67.8,61.7,29.70,ESE,121,10.0,22.0,81,0.00,,,0.00,meteohub,2013-04-09 06:22:00,
2013-04-09 01:27:00,67.8,61.7,29.70,SSE,149,9.0,22.0,81,0.00,,,0.00,meteohub,2013-04-09 06:27:00,
2013-04-09 01:32:00,67.8,61.7,29.70,SSE,162,13.0,21.0,81,0.00,,,0.00,meteohub,2013-04-09 06:32:00,
2013-04-09 01:37:00,67.8,61.7,29.70,SE,146,18.0,21.0,81,0.00,,,0.00,meteohub,2013-04-09 06:37:00,
2013-04-09 01:42:00,67.8,61.7,29.70,SE,135,10.0,21.0,81,0.00,,,0.00,meteohub,2013-04-09 06:42:00,
2013-04-09 01:47:00,68.0,61.9,29.70,SSE,166,12.0,20.0,81,0.00,,,0.00,meteohub,2013-04-09 06:47:00,
2013-04-09 01:52:00,68.0,61.9,29.70,South,173,9.0,20.0,81,0.00,,,0.00,meteohub,2013-04-09 06:52:00,
2013-04-09 01:57:00,68.0,61.9,29.69,SE,136,12.0,21.0,81,0.00,,,0.00,meteohub,2013-04-09 06:57:00,
2013-04-09 02:02:00,68.0,61.9,29.69,SSE,153,7.0,21.0,81,0.00,,,0.00,meteohub,2013-04-09 07:02:00,
2013-04-09 02:07:00,68.0,61.9,29.69,South,180,6.0,21.0,81,0.00,,,0.00,meteohub,2013-04-09 07:07:00,
2013-04-09 02:12:00,67.8,61.7,29.69,SW,214,5.0,21.0,81,0.00,,,0.00,meteohub,2013-04-09 07:12:00,
2013-04-09 02:17:00,67.8,61.7,29.69,SE,146,10.0,16.0,81,0.00,,,0.00,meteohub,2013-04-09 07:17:00,
2013-04-09 02:22:00,67.8,61.7,29.68,SSE,158,12.0,19.0,81,0.00,,,0.00,meteohub,2013-04-09 07:22:00,
2013-04-09 02:27:00,67.8,61.7,29.68,SE,127,12.0,25.0,81,0.00,,,0.00,meteohub,2013-04-09 07:27:00,
2013-04-09 02:32:00,67.8,61.7,29.68,SE,129,9.0,25.0,81,0.00,,,0.00,meteohub,2013-04-09 07:32:00,
2013-04-09 02:37:00,67.8,61.7,29.68,SSE,149,11.0,25.0,81,0.00,,,0.00,meteohub,2013-04-09 07:37:00,
2013-04-09 02:42:00,67.6,61.9,29.68,ESE,108,11.0,17.0,82,0.00,,,0.00,meteohub,2013-04-09 07:42:00,
2013-04-09 02:47:00,67.6,61.9,29.68,SE,134,11.0,16.0,82,0.00,,,0.00,meteohub,2013-04-09 07:47:00,
2013-04-09 02:52:00,67.6,61.5,29.67,SE,134,8.0,19.0,81,0.00,,,0.00,meteohub,2013-04-09 07:52:00,
2013-04-09 02:57:00,67.6,61.9,29.67,SSE,165,15.0,20.0,82,0.00,,,0.00,meteohub,2013-04-09 07:57:00,
2013-04-09 03:02:00,67.6,61.9,29.67,SE,131,12.0,20.0,82,0.00,,,0.00,meteohub,2013-04-09 08:02:00,
2013-04-09 03:07:00,67.6,61.9,29.67,SSE,149,6.0,20.0,82,0.00,,,0.00,meteohub,2013-04-09 08:07:00,
2013-04-09 03:12:00,67.6,61.9,29.67,SE,140,10.0,23.0,82,0.00,,,0.00,meteohub,2013-04-09 08:12:00,
2013-04-09 03:17:00,67.6,61.9,29.67,ESE,115,11.0,23.0,82,0.00,,,0.00,meteohub,2013-04-09 08:17:00,
2013-04-09 03:22:00,67.6,61.9,29.67,SE,131,12.0,23.0,82,0.00,,,0.00,meteohub,2013-04-09 08:22:00,
2013-04-09 03:28:00,67.5,61.7,29.66,SSE,168,10.0,23.0,82,0.00,,,0.00,meteohub,2013-04-09 08:28:00,
2013-04-09 03:33:00,67.5,61.7,29.66,ESE,102,17.0,19.0,82,0.00,,,0.00,meteohub,2013-04-09 08:33:00,
2013-04-09 03:38:00,67.5,61.7,29.66,SSW,208,11.0,25.0,82,0.00,,,0.00,meteohub,2013-04-09 08:38:00,
2013-04-09 03:43:00,67.5,61.7,29.65,SSE,149,9.0,25.0,82,0.00,,,0.00,meteohub,2013-04-09 08:43:00,
2013-04-09 03:48:00,67.5,61.7,29.66,SSE,147,14.0,25.0,82,0.00,,,0.00,meteohub,2013-04-09 08:48:00,
2013-04-09 03:53:00,67.5,61.7,29.67,SE,140,11.0,24.0,82,0.00,,,0.00,meteohub,2013-04-09 08:53:00,
2013-04-09 03:58:00,67.3,61.5,29.67,South,173,10.0,24.0,82,0.00,,,0.00,meteohub,2013-04-09 08:58:00,
2013-04-09 04:03:00,67.3,61.5,29.67,SW,219,11.0,24.0,82,0.00,,,0.00,meteohub,2013-04-09 09:03:00,
2013-04-09 04:08:00,67.3,61.5,29.67,SSW,195,9.0,22.0,82,0.00,,,0.00,meteohub,2013-04-09 09:08:00,
2013-04-09 04:13:00,67.3,61.5,29.67,South,174,13.0,21.0,82,0.00,,,0.00,meteohub,2013-04-09 09:13:00,
2013-04-09 04:18:00,67.3,61.9,29.67,SW,231,9.0,22.0,83,0.00,,,0.00,meteohub,2013-04-09 09:18:00,
2013-04-09 04:23:00,67.3,61.9,29.68,South,172,11.0,22.0,83,0.00,,,0.00,meteohub,2013-04-09 09:23:00,
2013-04-09 04:28:00,67.3,61.9,29.68,South,186,11.0,20.0,83,0.00,,,0.00,meteohub,2013-04-09 09:28:00,
2013-04-09 04:33:00,67.3,61.9,29.68,SE,127,9.0,20.0,83,0.00,,,0.00,meteohub,2013-04-09 09:33:00,
2013-04-09 04:38:00,67.3,61.9,29.68,SSE,155,11.0,23.0,83,0.00,,,0.00,meteohub,2013-04-09 09:38:00,
2013-04-09 04:43:00,67.3,61.9,29.68,SSE,163,13.0,23.0,83,0.00,,,0.00,meteohub,2013-04-09 09:43:00,
2013-04-09 04:48:00,67.1,61.7,29.68,SSW,193,7.0,23.0,83,0.00,,,0.00,meteohub,2013-04-09 09:48:00,
2013-04-09 04:53:00,67.1,61.7,29.68,SSE,164,8.0,21.0,83,0.00,,,0.00,meteohub,2013-04-09 09:53:00,
2013-04-09 04:58:00,67.1,61.7,29.68,SE,134,11.0,19.0,83,0.00,,,0.00,meteohub,2013-04-09 09:58:00,
2013-04-09 05:03:00,66.9,61.5,29.68,ESE,114,14.0,21.0,83,0.00,,,0.00,meteohub,2013-04-09 10:03:00,
2013-04-09 05:08:00,66.9,61.5,29.68,SSE,160,13.0,21.0,83,0.00,,,0.00,meteohub,2013-04-09 10:08:00,
2013-04-09 05:13:00,66.9,61.5,29.68,SE,136,12.0,17.0,83,0.00,,,0.00,meteohub,2013-04-09 10:13:00,
2013-04-09 05:18:00,66.9,61.5,29.68,South,189,8.0,17.0,83,0.00,,,0.00,meteohub,2013-04-09 10:18:00,
2013-04-09 05:23:00,66.9,61.5,29.68,SSE,167,13.0,17.0,83,0.00,,,0.00,meteohub,2013-04-09 10:23:00,
2013-04-09 05:28:00,66.9,61.5,29.68,SE,132,8.0,17.0,83,0.00,,,0.00,meteohub,2013-04-09 10:28:00,
2013-04-09 05:33:00,66.9,61.5,29.68,ESE,122,9.0,18.0,83,0.00,,,0.00,meteohub,2013-04-09 10:33:00,
2013-04-09 05:38:00,66.9,61.5,29.68,SSE,149,12.0,18.0,83,0.00,,,0.00,meteohub,2013-04-09 10:38:00,
2013-04-09 05:43:00,66.7,61.3,29.68,SSE,162,12.0,18.0,83,0.00,,,0.00,meteohub,2013-04-09 10:43:00,
2013-04-09 05:48:00,66.7,61.3,29.68,South,183,8.0,18.0,83,0.00,,,0.00,meteohub,2013-04-09 10:48:00,
2013-04-09 05:53:00,66.7,61.3,29.68,South,186,10.0,17.0,83,0.00,,,0.00,meteohub,2013-04-09 10:53:00,
2013-04-09 05:58:00,66.7,61.3,29.68,SSE,149,13.0,17.0,83,0.00,,,0.00,meteohub,2013-04-09 10:58:00,
2013-04-09 06:03:00,66.7,61.3,29.68,SE,146,9.0,17.0,83,0.00,,,0.00,meteohub,2013-04-09 11:03:00,
2013-04-09 06:08:00,66.7,61.3,29.69,South,180,8.0,18.0,83,0.00,,,0.00,meteohub,2013-04-09 11:08:00,
2013-04-09 06:13:00,66.7,61.3,29.69,SE,124,11.0,18.0,83,0.00,,,0.00,meteohub,2013-04-09 11:13:00,
2013-04-09 06:18:00,66.7,61.3,29.69,SE,139,9.0,18.0,83,0.00,,,0.00,meteohub,2013-04-09 11:18:00,
2013-04-09 06:23:00,66.7,61.3,29.69,SE,140,9.0,19.0,83,0.00,,,0.00,meteohub,2013-04-09 11:23:00,
2013-04-09 06:28:00,66.7,61.0,29.69,SE,140,10.0,19.0,82,0.00,,,0.00,meteohub,2013-04-09 11:28:00,
2013-04-09 06:33:00,66.7,61.3,29.70,SE,139,5.0,19.0,83,0.00,,,0.00,meteohub,2013-04-09 11:33:00,
2013-04-09 06:38:00,66.6,61.0,29.70,SSE,167,4.0,17.0,82,0.00,,,0.00,meteohub,2013-04-09 11:38:00,
2013-04-09 06:43:00,66.6,61.0,29.70,SSE,165,5.0,18.0,82,0.00,,,0.00,meteohub,2013-04-09 11:43:00,
2013-04-09 06:48:00,66.6,61.0,29.71,SSW,195,11.0,18.0,82,0.00,,,0.00,meteohub,2013-04-09 11:48:00,
2013-04-09 06:53:00,66.6,61.0,29.71,SSW,195,5.0,18.0,82,0.00,,,0.00,meteohub,2013-04-09 11:53:00,
2013-04-09 06:58:00,66.6,61.0,29.71,SE,142,6.0,15.0,82,0.00,,,0.00,meteohub,2013-04-09 11:58:00,
2013-04-09 07:03:00,66.4,60.8,29.71,SW,217,6.0,15.0,82,0.00,,,0.00,meteohub,2013-04-09 12:03:00,
2013-04-09 07:08:00,66.4,60.8,29.72,South,174,7.0,17.0,82,0.00,,,0.00,meteohub,2013-04-09 12:08:00,
2013-04-09 07:13:00,66.4,60.8,29.72,South,187,10.0,17.0,82,0.00,,,0.00,meteohub,2013-04-09 12:13:00,
2013-04-09 07:18:00,66.4,60.8,29.72,SSW,205,3.0,17.0,82,0.00,,,0.00,meteohub,2013-04-09 12:18:00,
2013-04-09 07:23:00,66.4,60.8,29.73,SSW,195,10.0,18.0,82,0.00,,,0.00,meteohub,2013-04-09 12:23:00,
2013-04-09 07:28:00,66.2,60.6,29.73,South,184,10.0,18.0,82,0.00,,,0.00,meteohub,2013-04-09 12:28:00,
2013-04-09 07:34:00,66.2,60.6,29.74,SSE,155,10.0,18.0,82,0.00,,,0.00,meteohub,2013-04-09 12:34:00,
2013-04-09 07:39:00,66.2,60.6,29.74,SE,134,11.0,18.0,82,0.00,,,0.00,meteohub,2013-04-09 12:39:00,
2013-04-09 07:44:00,66.0,60.4,29.74,SSE,148,8.0,18.0,82,0.00,,,0.00,meteohub,2013-04-09 12:44:00,
2013-04-09 07:49:00,66.0,60.4,29.74,South,186,8.0,16.0,82,0.00,,,0.00,meteohub,2013-04-09 12:49:00,
2013-04-09 07:55:00,66.0,60.4,29.74,SSW,212,5.0,15.0,82,0.00,,,0.00,meteohub,2013-04-09 12:55:00,
2013-04-09 08:00:00,66.0,60.4,29.73,SE,135,6.0,15.0,82,0.00,,,0.00,meteohub,2013-04-09 13:00:00,
2013-04-09 08:05:00,66.0,60.4,29.74,SSW,205,7.0,14.0,82,0.00,,,0.00,meteohub,2013-04-09 13:05:00,
2013-04-09 08:10:00,66.0,60.4,29.73,SE,127,11.0,15.0,82,0.00,,,0.00,meteohub,2013-04-09 13:10:00,
2013-04-09 08:15:00,66.0,60.4,29.73,SSE,159,9.0,15.0,82,0.00,,,0.00,meteohub,2013-04-09 13:15:00,
2013-04-09 08:20:00,66.0,60.4,29.73,ESE,120,10.0,15.0,82,0.00,,,0.00,meteohub,2013-04-09 13:20:00,
2013-04-09 08:25:00,66.0,60.4,29.74,SE,134,7.0,15.0,82,0.00,,,0.00,meteohub,2013-04-09 13:25:00,
2013-04-09 08:30:00,66.0,60.4,29.74,SSE,165,11.0,16.0,82,0.00,,,0.00,meteohub,2013-04-09 13:30:00,
2013-04-09 08:35:00,66.2,60.3,29.74,SSE,148,3.0,16.0,81,0.00,,,0.00,meteohub,2013-04-09 13:35:00,
2013-04-09 08:40:00,66.4,60.4,29.74,SE,146,5.0,15.0,81,0.00,,,0.00,meteohub,2013-04-09 13:40:00,
2013-04-09 08:45:00,66.4,60.4,29.74,SSE,153,13.0,15.0,81,0.00,,,0.00,meteohub,2013-04-09 13:45:00,
2013-04-09 08:50:00,66.4,60.4,29.74,South,188,8.0,15.0,81,0.00,,,0.00,meteohub,2013-04-09 13:50:00,
2013-04-09 08:55:00,66.4,60.4,29.75,South,169,19.0,19.0,81,0.00,,,0.00,meteohub,2013-04-09 13:55:00,
2013-04-09 09:00:00,66.4,60.4,29.75,SE,127,9.0,19.0,81,0.00,,,0.00,meteohub,2013-04-09 14:00:00,
2013-04-09 09:05:00,66.6,60.6,29.75,SE,139,4.0,19.0,81,0.00,,,0.00,meteohub,2013-04-09 14:05:00,
2013-04-09 09:10:00,66.6,60.3,29.75,SE,135,16.0,19.0,80,0.00,,,0.00,meteohub,2013-04-09 14:10:00,
2013-04-09 09:15:00,66.6,60.3,29.75,SE,141,7.0,19.0,80,0.00,,,0.00,meteohub,2013-04-09 14:15:00,
2013-04-09 09:20:00,66.6,60.3,29.75,SE,133,12.0,18.0,80,0.00,,,0.00,meteohub,2013-04-09 14:20:00,
2013-04-09 09:25:00,66.7,60.4,29.75,SE,131,11.0,18.0,80,0.00,,,0.00,meteohub,2013-04-09 14:25:00,
2013-04-09 09:30:00,66.7,60.4,29.76,SSE,166,10.0,17.0,80,0.00,,,0.00,meteohub,2013-04-09 14:30:00,
2013-04-09 09:36:00,66.7,60.4,29.76,ESE,116,11.0,16.0,80,0.00,,,0.00,meteohub,2013-04-09 14:36:00,
2013-04-09 09:41:00,66.7,60.4,29.76,SSE,158,18.0,18.0,80,0.00,,,0.00,meteohub,2013-04-09 14:41:00,
2013-04-09 09:46:00,66.9,60.6,29.77,South,179,9.0,19.0,80,0.00,,,0.00,meteohub,2013-04-09 14:46:00,
2013-04-09 09:51:00,66.9,60.6,29.77,South,177,9.0,19.0,80,0.00,,,0.00,meteohub,2013-04-09 14:51:00,
2013-04-09 09:56:00,66.9,61.0,29.78,SSW,205,7.0,19.0,81,0.00,,,0.00,meteohub,2013-04-09 14:56:00,
2013-04-09 10:01:00,66.7,60.8,29.78,SW,214,8.0,17.0,81,0.00,,,0.00,meteohub,2013-04-09 15:01:00,
2013-04-09 10:06:00,66.9,61.0,29.78,South,173,5.0,17.0,81,0.00,,,0.00,meteohub,2013-04-09 15:06:00,
2013-04-09 10:11:00,66.9,61.0,29.78,SSE,153,11.0,17.0,81,0.00,,,0.00,meteohub,2013-04-09 15:11:00,
2013-04-09 10:16:00,67.1,61.2,29.77,South,186,5.0,13.0,81,0.00,,,0.00,meteohub,2013-04-09 15:16:00,
2013-04-09 10:21:00,67.1,61.2,29.77,SSW,203,4.0,13.0,81,0.00,,,0.00,meteohub,2013-04-09 15:21:00,
2013-04-09 10:26:00,67.5,61.2,29.76,SSE,167,7.0,13.0,80,0.00,,,0.00,meteohub,2013-04-09 15:26:00,
2013-04-09 10:31:00,68.2,61.3,29.77,SE,136,9.0,12.0,79,0.00,,,0.00,meteohub,2013-04-09 15:31:00,
2013-04-09 10:36:00,68.5,61.3,29.77,SE,132,6.0,16.0,78,0.00,,,0.00,meteohub,2013-04-09 15:36:00,
2013-04-09 10:41:00,69.3,61.7,29.77,South,173,12.0,16.0,77,0.00,,,0.00,meteohub,2013-04-09 15:41:00,
2013-04-09 10:46:00,69.8,61.9,29.77,South,188,10.0,16.0,76,0.00,,,0.00,meteohub,2013-04-09 15:46:00,
2013-04-09 10:51:00,70.0,61.7,29.76,SSE,148,12.0,15.0,75,0.00,,,0.00,meteohub,2013-04-09 15:51:00,
2013-04-09 10:57:00,70.2,61.9,29.77,SE,131,10.0,19.0,75,0.00,,,0.00,meteohub,2013-04-09 15:57:00,
2013-04-09 11:02:00,70.0,61.3,29.77,SE,129,9.0,19.0,74,0.00,,,0.00,meteohub,2013-04-09 16:02:00,
2013-04-09 11:07:00,69.8,61.5,29.76,SSE,155,12.0,19.0,75,0.00,,,0.00,meteohub,2013-04-09 16:07:00,
2013-04-09 11:12:00,70.2,61.5,29.76,SSW,209,6.0,20.0,74,0.00,,,0.00,meteohub,2013-04-09 16:12:00,
2013-04-09 11:19:00,70.9,62.2,29.77,SE,136,8.0,25.0,74,0.00,,,0.00,meteohub,2013-04-09 16:19:00,
2013-04-09 11:24:00,71.8,62.2,29.76,SE,134,13.0,25.0,72,0.00,,,0.00,meteohub,2013-04-09 16:24:00,
2013-04-09 11:29:00,72.0,62.1,29.76,South,173,18.0,25.0,71,0.00,,,0.00,meteohub,2013-04-09 16:29:00,
2013-04-09 11:34:00,72.0,62.1,29.77,SSE,156,11.0,19.0,71,0.00,,,0.00,meteohub,2013-04-09 16:34:00,
2013-04-09 11:39:00,71.8,61.9,29.76,SSE,153,16.0,20.0,71,0.00,,,0.00,meteohub,2013-04-09 16:39:00,
2013-04-09 11:44:00,71.8,61.5,29.76,SSW,193,13.0,22.0,70,0.00,,,0.00,meteohub,2013-04-09 16:44:00,
2013-04-09 11:50:00,71.8,61.9,29.76,South,177,20.0,25.0,71,0.00,,,0.00,meteohub,2013-04-09 16:50:00,
2013-04-09 11:55:00,71.8,61.9,29.76,SE,136,15.0,25.0,71,0.00,,,0.00,meteohub,2013-04-09 16:55:00,
2013-04-09 12:00:00,72.1,61.9,29.76,SSE,162,12.0,25.0,70,0.00,,,0.00,meteohub,2013-04-09 17:00:00,
2013-04-09 12:05:00,72.1,61.9,29.76,SE,131,12.0,21.0,70,0.00,,,0.00,meteohub,2013-04-09 17:05:00,
2013-04-09 12:10:00,71.8,61.9,29.76,SSW,198,5.0,23.0,71,0.00,,,0.00,meteohub,2013-04-09 17:10:00,
2013-04-09 12:15:00,71.8,61.5,29.76,SE,145,11.0,23.0,70,0.00,,,0.00,meteohub,2013-04-09 17:15:00,
2013-04-09 12:20:00,72.0,61.7,29.76,SSE,148,7.0,23.0,70,0.00,,,0.00,meteohub,2013-04-09 17:20:00,
2013-04-09 12:25:00,72.0,61.7,29.76,SSE,158,17.0,21.0,70,0.00,,,0.00,meteohub,2013-04-09 17:25:00,
2013-04-09 12:30:00,72.0,62.1,29.75,SSW,212,12.0,21.0,71,0.00,,,0.00,meteohub,2013-04-09 17:30:00,
2013-04-09 12:35:00,72.0,62.1,29.76,South,183,14.0,19.0,71,0.00,,,0.00,meteohub,2013-04-09 17:35:00,
2013-04-09 12:40:00,71.8,62.2,29.75,South,190,7.0,20.0,72,0.00,,,0.00,meteohub,2013-04-09 17:40:00,
2013-04-09 12:45:00,71.8,62.2,29.75,SE,145,11.0,23.0,72,0.00,,,0.00,meteohub,2013-04-09 17:45:00,
2013-04-09 12:50:00,72.0,62.1,29.75,SSE,168,10.0,23.0,71,0.00,,,0.00,meteohub,2013-04-09 17:50:00,
2013-04-09 12:55:00,72.1,62.2,29.75,SE,145,12.0,23.0,71,0.00,,,0.00,meteohub,2013-04-09 17:55:00,
2013-04-09 13:00:00,72.1,62.2,29.76,SW,222,9.0,17.0,71,0.00,,,0.00,meteohub,2013-04-09 18:00:00,
2013-04-09 13:05:00,72.3,62.4,29.75,SSW,210,5.0,17.0,71,0.00,,,0.00,meteohub,2013-04-09 18:05:00,
2013-04-09 13:10:00,72.1,62.2,29.75,SW,221,5.0,17.0,71,0.00,,,0.00,meteohub,2013-04-09 18:10:00,
2013-04-09 13:15:00,72.0,62.1,29.75,SSW,204,9.0,19.0,71,0.00,,,0.00,meteohub,2013-04-09 18:15:00,
2013-04-09 13:20:00,71.8,62.2,29.75,SSE,150,13.0,19.0,72,0.00,,,0.00,meteohub,2013-04-09 18:20:00,
2013-04-09 13:25:00,71.6,62.1,29.75,SSE,152,12.0,19.0,72,0.00,,,0.00,meteohub,2013-04-09 18:25:00,
2013-04-09 13:30:00,71.8,61.9,29.74,South,170,15.0,18.0,71,0.00,,,0.00,meteohub,2013-04-09 18:30:00,
2013-04-09 13:35:00,71.6,61.7,29.75,SE,139,13.0,17.0,71,0.00,,,0.00,meteohub,2013-04-09 18:35:00,
2013-04-09 13:40:00,71.6,62.1,29.74,SW,218,8.0,16.0,72,0.00,,,0.00,meteohub,2013-04-09 18:40:00,
2013-04-09 13:45:00,71.6,62.4,29.74,SE,139,7.0,16.0,73,0.00,,,0.00,meteohub,2013-04-09 18:45:00,
2013-04-09 13:50:00,71.8,62.6,29.74,South,170,4.0,15.0,73,0.00,,,0.00,meteohub,2013-04-09 18:50:00,
2013-04-09 13:55:00,71.8,62.2,29.74,SSW,192,7.0,14.0,72,0.00,,,0.00,meteohub,2013-04-09 18:55:00,
2013-04-09 14:00:00,71.8,62.2,29.74,SSW,205,4.0,14.0,72,0.00,,,0.00,meteohub,2013-04-09 19:00:00,
2013-04-09 14:05:00,71.6,62.4,29.74,SSW,205,6.0,15.0,73,0.00,,,0.00,meteohub,2013-04-09 19:05:00,
2013-04-09 14:10:00,71.6,62.4,29.75,SW,218,7.0,15.0,73,0.00,,,0.00,meteohub,2013-04-09 19:10:00,
2013-04-09 14:15:00,71.6,62.4,29.75,SSW,205,6.0,15.0,73,0.00,,,0.00,meteohub,2013-04-09 19:15:00,
2013-04-09 14:20:00,71.6,62.4,29.75,SSE,158,7.0,15.0,73,0.00,,,0.00,meteohub,2013-04-09 19:20:00,
2013-04-09 14:25:00,71.8,62.6,29.74,South,188,11.0,12.0,73,0.00,,,0.00,meteohub,2013-04-09 19:25:00,
2013-04-09 14:30:00,72.1,63.0,29.74,SW,215,2.0,15.0,73,0.00,,,0.00,meteohub,2013-04-09 19:30:00,
2013-04-09 14:35:00,72.5,62.6,29.74,SSE,167,8.0,15.0,71,0.00,,,0.00,meteohub,2013-04-09 19:35:00,
2013-04-09 14:40:00,72.9,63.0,29.74,South,174,9.0,16.0,71,0.00,,,0.00,meteohub,2013-04-09 19:40:00,
2013-04-09 14:45:00,73.2,62.8,29.74,South,169,8.0,16.0,70,0.00,,,0.00,meteohub,2013-04-09 19:45:00,
2013-04-09 14:50:00,73.6,62.8,29.74,SSE,158,7.0,15.0,69,0.00,,,0.00,meteohub,2013-04-09 19:50:00,
2013-04-09 14:56:00,73.9,62.8,29.74,SE,127,15.0,15.0,68,0.00,,,0.00,meteohub,2013-04-09 19:56:00,
2013-04-09 15:01:00,73.9,62.8,29.74,SSW,201,6.0,17.0,68,0.00,,,0.00,meteohub,2013-04-09 20:01:00,
2013-04-09 15:06:00,74.1,63.0,29.74,SE,135,16.0,17.0,68,0.00,,,0.00,meteohub,2013-04-09 20:06:00,
2013-04-09 15:11:00,73.9,62.8,29.74,ESE,121,8.0,18.0,68,0.00,,,0.00,meteohub,2013-04-09 20:11:00,
2013-04-09 15:16:00,73.9,62.8,29.73,SSE,153,3.0,18.0,68,0.00,,,0.00,meteohub,2013-04-09 20:16:00,
2013-04-09 15:21:00,73.9,62.8,29.74,South,179,9.0,18.0,68,0.00,,,0.00,meteohub,2013-04-09 20:21:00,
2013-04-09 15:26:00,70.0,52.5,29.77,WNW,298,29.0,29.0,54,0.00,,,0.00,meteohub,2013-04-09 20:26:00,
2013-04-09 15:32:00,57.4,48.0,29.78,WNW,301,18.0,35.0,71,0.00,,,0.00,meteohub,2013-04-09 20:32:00,
2013-04-09 15:37:00,52.9,47.3,29.78,WNW,290,17.0,35.0,81,0.00,,,0.00,meteohub,2013-04-09 20:37:00,
2013-04-09 15:42:00,51.6,46.6,29.79,NNW,329,18.0,35.0,83,0.00,,,0.00,meteohub,2013-04-09 20:42:00,
2013-04-09 15:47:00,50.7,46.4,29.79,WNW,300,25.0,35.0,85,0.00,,,0.00,meteohub,2013-04-09 20:47:00,
2013-04-09 15:52:00,50.7,46.8,29.79,NNW,343,15.0,29.0,86,0.00,,,0.00,meteohub,2013-04-09 20:52:00,
2013-04-09 15:57:00,50.4,46.0,29.78,NW,308,14.0,27.0,85,0.00,,,0.00,meteohub,2013-04-09 20:57:00,
2013-04-09 16:02:00,50.4,46.6,29.79,NW,308,15.0,25.0,87,0.00,,,0.00,meteohub,2013-04-09 21:02:00,
2013-04-09 16:07:00,49.6,45.7,29.79,WNW,297,8.0,26.0,86,0.00,,,0.00,meteohub,2013-04-09 21:07:00,
2013-04-09 16:12:00,49.6,45.9,29.80,NW,322,14.0,26.0,87,0.00,,,0.00,meteohub,2013-04-09 21:12:00,
2013-04-09 16:17:00,49.3,45.0,29.81,NW,307,11.0,26.0,85,0.00,,,0.00,meteohub,2013-04-09 21:17:00,
2013-04-09 16:22:00,49.1,45.1,29.81,NW,321,12.0,25.0,86,0.00,,,0.00,meteohub,2013-04-09 21:22:00,
2013-04-09 16:27:00,48.7,44.4,29.81,NNW,337,19.0,25.0,85,0.00,,,0.00,meteohub,2013-04-09 21:27:00,
2013-04-09 16:32:00,48.6,44.2,29.81,WNW,288,10.0,25.0,85,0.00,,,0.00,meteohub,2013-04-09 21:32:00,
2013-04-09 16:37:00,48.6,44.6,29.81,West,281,13.0,29.0,86,0.00,,,0.00,meteohub,2013-04-09 21:37:00,
2013-04-09 16:42:00,48.4,44.1,29.81,NW,304,11.0,29.0,85,0.00,,,0.00,meteohub,2013-04-09 21:42:00,
2013-04-09 16:47:00,48.0,43.7,29.81,NW,304,14.0,29.0,85,0.00,,,0.00,meteohub,2013-04-09 21:47:00,
2013-04-09 16:52:00,47.5,42.8,29.82,NNW,334,12.0,25.0,84,0.00,,,0.00,meteohub,2013-04-09 21:52:00,
2013-04-09 16:57:00,47.5,43.2,29.82,WNW,297,15.0,25.0,85,0.00,,,0.00,meteohub,2013-04-09 21:57:00,
2013-04-09 17:02:00,46.9,42.4,29.83,WNW,283,12.0,25.0,84,0.00,,,0.00,meteohub,2013-04-09 22:02:00,
2013-04-09 17:07:00,46.9,42.6,29.83,NW,307,15.0,30.0,85,0.00,,,0.00,meteohub,2013-04-09 22:07:00,
2013-04-09 17:13:00,46.6,42.3,29.84,WNW,293,18.0,30.0,85,0.00,,,0.00,meteohub,2013-04-09 22:13:00,
2013-04-09 17:18:00,46.2,42.3,29.85,NW,307,14.0,30.0,86,0.00,,,0.00,meteohub,2013-04-09 22:18:00,
2013-04-09 17:23:00,45.7,41.7,29.86,NW,312,20.0,28.0,86,0.00,,,0.00,meteohub,2013-04-09 22:23:00,
2013-04-09 17:28:00,45.3,41.7,29.86,WNW,298,14.0,28.0,87,0.00,,,0.00,meteohub,2013-04-09 22:28:00,
2013-04-09 17:33:00,45.3,41.9,29.85,WNW,300,15.0,24.0,88,0.00,,,0.00,meteohub,2013-04-09 22:33:00,
2013-04-09 17:38:00,45.1,41.5,29.85,NW,304,19.0,24.0,87,0.00,,,0.00,meteohub,2013-04-09 22:38:00,
2013-04-09 17:43:00,45.0,41.5,29.85,NW,326,11.0,25.0,88,0.00,,,0.00,meteohub,2013-04-09 22:43:00,
2013-04-09 17:48:00,44.8,41.4,29.86,NW,309,9.0,25.0,88,0.00,,,0.00,meteohub,2013-04-09 22:48:00,
2013-04-09 17:53:00,44.8,41.4,29.86,NW,321,20.0,25.0,88,0.00,,,0.00,meteohub,2013-04-09 22:53:00,
2013-04-09 17:58:00,44.4,41.2,29.88,NW,316,10.0,25.0,88,0.00,,,0.00,meteohub,2013-04-09 22:58:00,
2013-04-09 18:03:00,44.4,41.2,29.88,NW,307,21.0,25.0,88,0.00,,,0.00,meteohub,2013-04-09 23:03:00,
2013-04-09 18:08:00,43.9,40.6,29.88,WNW,298,14.0,27.0,88,0.00,,,0.00,meteohub,2013-04-09 23:08:00,
2013-04-09 18:13:00,43.9,40.6,29.88,NW,321,12.0,30.0,88,0.00,,,0.00,meteohub,2013-04-09 23:13:00,
2013-04-09 18:18:00,43.7,40.5,29.88,NNE,33,18.0,30.0,88,0.00,,,0.00,meteohub,2013-04-09 23:18:00,
2013-04-09 18:23:00,43.7,40.6,29.88,NNW,332,12.0,30.0,89,0.00,,,0.00,meteohub,2013-04-09 23:23:00,
2013-04-09 18:28:00,43.7,40.5,29.88,WNW,293,12.0,29.0,88,0.00,,,0.00,meteohub,2013-04-09 23:28:00,
2013-04-09 18:33:00,43.3,40.1,29.88,NW,314,14.0,29.0,88,0.00,,,0.00,meteohub,2013-04-09 23:33:00,
2013-04-09 18:38:00,43.2,39.9,29.88,NNW,337,24.0,27.0,88,0.00,,,0.00,meteohub,2013-04-09 23:38:00,
2013-04-09 18:43:00,43.2,40.1,29.89,NW,312,12.0,30.0,89,0.00,,,0.00,meteohub,2013-04-09 23:43:00,
2013-04-09 18:48:00,43.0,39.9,29.89,NW,307,17.0,30.0,89,0.00,,,0.00,meteohub,2013-04-09 23:48:00,
2013-04-09 18:53:00,42.8,39.7,29.89,NW,304,16.0,30.0,89,0.00,,,0.00,meteohub,2013-04-09 23:53:00,
2013-04-09 18:58:00,42.6,39.6,29.89,NW,304,17.0,27.0,89,0.00,,,0.00,meteohub,2013-04-09 23:58:00,
2013-04-09 19:03:00,42.6,39.4,29.89,NE,52,13.0,31.0,88,0.00,,,0.00,meteohub,2013-04-10 00:03:00,
2013-04-09 19:08:00,42.3,39.0,29.90,NW,316,24.0,31.0,88,0.00,,,0.00,meteohub,2013-04-10 00:08:00,
2013-04-09 19:13:00,40.8,37.6,29.90,WNW,293,23.0,31.0,88,0.00,,,0.00,meteohub,2013-04-10 00:13:00,
2013-04-09 19:18:00,40.1,37.0,29.90,North,1,10.0,34.0,89,0.00,,,0.00,meteohub,2013-04-10 00:18:00,
2013-04-09 19:24:00,39.7,36.7,29.91,NW,322,16.0,34.0,89,0.00,,,0.00,meteohub,2013-04-10 00:24:00,
2013-04-09 19:29:00,39.4,36.7,29.90,NW,325,15.0,30.0,90,0.00,,,0.00,meteohub,2013-04-10 00:29:00,
2013-04-09 19:34:00,39.0,36.3,29.89,NW,309,22.0,30.0,90,0.00,,,0.00,meteohub,2013-04-10 00:34:00,
2013-04-09 19:39:00,38.7,36.0,29.89,WNW,290,20.0,30.0,90,0.00,,,0.00,meteohub,2013-04-10 00:39:00,
2013-04-09 19:44:00,38.7,36.0,29.90,NW,312,21.0,31.0,90,0.00,,,0.00,meteohub,2013-04-10 00:44:00,
2013-04-09 19:49:00,38.5,35.2,29.89,NNW,339,13.0,31.0,88,0.00,,,0.00,meteohub,2013-04-10 00:49:00,
2013-04-09 19:54:00,38.1,35.2,29.90,NNE,26,20.0,31.0,89,0.00,,,0.00,meteohub,2013-04-10 00:54:00,
2013-04-09 19:59:00,38.1,35.2,29.91,NW,326,16.0,31.0,89,0.00,,,0.00,meteohub,2013-04-10 00:59:00,
2013-04-09 20:04:00,37.9,35.1,29.91,NNW,328,14.0,31.0,89,0.00,,,0.00,meteohub,2013-04-10 01:04:00,
2013-04-09 20:09:00,37.6,34.7,29.91,NNW,335,15.0,29.0,89,0.00,,,0.00,meteohub,2013-04-10 01:09:00,
2013-04-09 20:14:00,37.4,34.7,29.90,NW,314,16.0,31.0,90,0.00,,,0.00,meteohub,2013-04-10 01:14:00,
2013-04-09 20:19:00,36.9,34.0,29.90,NNW,343,13.0,31.0,89,0.00,,,0.00,meteohub,2013-04-10 01:19:00,
2013-04-09 20:24:00,36.9,34.0,29.91,NNW,335,21.0,31.0,89,0.00,,,0.00,meteohub,2013-04-10 01:24:00,
2013-04-09 20:29:00,36.7,34.0,29.91,North,11,29.0,32.0,90,0.00,,,0.00,meteohub,2013-04-10 01:29:00,
2013-04-09 20:34:00,36.3,33.4,29.91,NNE,15,19.0,32.0,89,0.00,,,0.00,meteohub,2013-04-10 01:34:00,
2013-04-09 20:39:00,36.0,33.1,29.93,NW,318,18.0,32.0,89,0.00,,,0.00,meteohub,2013-04-10 01:39:00,
2013-04-09 20:44:00,36.0,33.1,29.94,WNW,300,18.0,32.0,89,0.00,,,0.00,meteohub,2013-04-10 01:44:00,
2013-04-09 20:49:00,36.0,33.3,29.98,NW,304,18.0,32.0,90,0.00,,,0.00,meteohub,2013-04-10 01:49:00,
2013-04-09 20:54:00,35.8,33.1,29.95,NNW,337,29.0,30.0,90,0.00,,,0.00,meteohub,2013-04-10 01:54:00,
2013-04-09 20:59:00,35.4,32.7,29.96,NNW,331,11.0,32.0,90,0.00,,,0.00,meteohub,2013-04-10 01:59:00,
2013-04-09 21:04:00,35.1,32.4,29.94,NW,319,19.0,33.0,90,0.00,,,0.00,meteohub,2013-04-10 02:04:00,
2013-04-09 21:09:00,34.9,32.2,29.94,NW,312,8.0,34.0,90,0.00,,,0.00,meteohub,2013-04-10 02:09:00,
2013-04-09 21:14:00,34.5,31.8,29.94,NW,321,18.0,34.0,90,0.00,,,0.00,meteohub,2013-04-10 02:14:00,
2013-04-09 21:20:00,34.5,31.8,29.92,NNW,328,18.0,37.0,90,0.00,,,0.00,meteohub,2013-04-10 02:20:00,
2013-04-09 21:25:00,34.7,31.8,29.94,North,5,14.0,37.0,89,0.00,,,0.00,meteohub,2013-04-10 02:25:00,
2013-04-09 21:30:00,34.7,31.8,29.93,North,4,23.0,37.0,89,0.00,,,0.00,meteohub,2013-04-10 02:30:00,
2013-04-09 21:35:00,34.5,31.6,29.94,NNW,348,22.0,37.0,89,0.00,,,0.00,meteohub,2013-04-10 02:35:00,
2013-04-09 21:40:00,34.5,31.8,29.96,NW,311,9.0,32.0,90,0.00,,,0.00,meteohub,2013-04-10 02:40:00,
2013-04-09 21:45:00,34.7,31.8,30.05,West,280,17.0,32.0,89,0.00,,,0.00,meteohub,2013-04-10 02:45:00,
2013-04-09 21:50:00,34.3,30.6,30.03,WNW,287,25.0,34.0,86,0.00,,,0.00,meteohub,2013-04-10 02:50:00,
2013-04-09 21:55:00,34.3,31.1,30.06,NNW,332,16.0,34.0,88,0.00,,,0.00,meteohub,2013-04-10 02:55:00,
2013-04-09 22:00:00,34.0,31.1,30.05,WNW,301,15.0,38.0,89,0.00,,,0.00,meteohub,2013-04-10 03:00:00,
2013-04-09 22:05:00,33.4,30.7,30.03,NNW,328,17.0,38.0,90,0.00,,,0.00,meteohub,2013-04-10 03:05:00,
2013-04-09 22:10:00,32.9,30.0,30.04,NW,305,14.0,34.0,89,0.00,,,0.00,meteohub,2013-04-10 03:10:00,
2013-04-09 22:15:00,33.1,30.4,30.06,NW,310,31.0,34.0,90,0.00,,,0.00,meteohub,2013-04-10 03:15:00,
2013-04-09 22:20:00,33.3,30.4,30.08,NW,314,22.0,35.0,89,0.01,,,0.01,meteohub,2013-04-10 03:20:00,
2013-04-09 22:25:00,33.3,30.6,30.05,NW,307,24.0,35.0,90,0.01,,,0.01,meteohub,2013-04-10 03:25:00,
2013-04-09 22:30:00,33.4,31.1,30.06,WNW,291,13.0,34.0,91,0.01,,,0.01,meteohub,2013-04-10 03:30:00,
2013-04-09 22:35:00,33.3,30.9,30.06,West,270,17.0,31.0,91,0.03,,,0.03,meteohub,2013-04-10 03:35:00,
2013-04-09 22:40:00,33.1,31.1,30.04,WNW,303,21.0,33.0,92,0.04,,,0.04,meteohub,2013-04-10 03:40:00,
2013-04-09 22:45:00,32.7,30.9,30.01,NNW,335,22.0,33.0,93,0.04,,,0.04,meteohub,2013-04-10 03:45:00,
2013-04-09 22:50:00,32.5,30.9,30.05,NE,50,7.0,33.0,94,0.05,,,0.05,meteohub,2013-04-10 03:50:00,
2013-04-09 22:55:00,32.4,30.6,30.06,NW,326,9.0,30.0,93,0.05,,,0.05,meteohub,2013-04-10 03:55:00,
2013-04-09 23:00:00,32.4,30.6,30.07,NW,307,11.0,30.0,93,0.05,,,0.05,meteohub,2013-04-10 04:00:00,
2013-04-09 23:01:00,32.4,30.6,30.07,NW,316,16.0,27.0,93,0.05,,,0.05,meteohub,2013-04-10 04:01:00,
2013-04-09 23:06:00,32.0,30.2,30.04,NE,52,12.0,27.0,93,0.10,,,0.10,meteohub,2013-04-10 04:06:00,
2013-04-09 23:11:00,31.6,30.4,30.01,NE,34,15.0,25.0,95,0.19,,,0.19,meteohub,2013-04-10 04:11:00,
2013-04-09 23:16:00,31.6,30.4,29.99,NW,309,16.0,25.0,95,0.21,,,0.22,meteohub,2013-04-10 04:16:00,
2013-04-09 23:21:00,31.6,30.6,29.99,NNE,13,21.0,29.0,96,0.22,,,0.23,meteohub,2013-04-10 04:21:00,
2013-04-09 23:27:00,31.6,30.6,30.08,WNW,297,25.0,29.0,96,0.24,,,0.25,meteohub,2013-04-10 04:27:00,
2013-04-09 23:32:00,31.6,30.6,30.09,NW,316,8.0,27.0,96,0.24,,,0.25,meteohub,2013-04-10 04:32:00,
2013-04-09 23:37:00,31.6,30.6,30.09,NW,323,11.0,25.0,96,0.22,,,0.25,meteohub,2013-04-10 04:37:00,
2013-04-09 23:42:00,31.6,30.6,30.07,NW,309,10.0,25.0,96,0.22,,,0.26,meteohub,2013-04-10 04:42:00,
2013-04-09 23:47:00,31.6,30.6,30.01,North,350,16.0,24.0,96,0.22,,,0.27,meteohub,2013-04-10 04:47:00,
2013-04-09 23:52:00,31.6,30.6,30.03,NNW,339,21.0,25.0,96,0.22,,,0.27,meteohub,2013-04-10 04:52:00,
2013-04-09 23:57:00,31.6,30.6,29.97,NE,41,15.0,26.0,96,0.23,,,0.28,meteohub,2013-04-10 04:57:00,